Location: Nied?wied?
(53.3665°N, 14.8184°E)
Time: 18:36:05
(UTC+00:00)

ISS - Pass Details

Date: 18 May 2021
Orbit: 417 x 422 km, 51.6° (Epoch: 14 June)

Event Time Altitude Azimuth Distance (km) Brightness Sun altitude
Rises 20:52:58 0° 254° (WSW) 2,364 0.2 -12.1°
Reaches altitude 10° 20:55:05 10° 250° (WSW) 1,502 -0.8 -12.3°
Maximum altitude 20:58:24 59° 171° (S) 490 -3.8 -12.5°
Drops below altitude 10° 21:01:44 10° 91° (E) 1,507 -1.2 -12.7°
Enters shadow 21:03:11 - 88° (E) 2,099 -0.5 -12.8°
